| time (UTC) | temp C | wind direction | speed KPH | gust KPH | rain 1hr cm | rain 24hr cm | rain mn cm | humidity % | barometer mb |
| 20260507094016 | 10 | 0.0 | 0.0 | 0.00 | 0.00 | 0.00 | 89 | 1020.7 | |
| 20260507093016 | 10 | 0.0 | 0.0 | 0.00 | 0.00 | 0.00 | 89 | 1020.6 | |
| 20260507092016 | 10 | 0.0 | 0.0 | 0.00 | 0.00 | 0.00 | 90 | 1020.6 | |
| 20260507091036 | 10 | 0.0 | 1.6 | 0.00 | 0.00 | 0.00 | 90 | 1020.6 | |
| 20260507090016 | 10 | 0.0 | 3.2 | 0.00 | 0.00 | 0.00 | 90 | 1020.6 | |
| 20260507085016 | 11 | 0.0 | 1.6 | 0.00 | 0.00 | 0.00 | 90 | 1020.5 | |
| 20260507084036 | 11 | 0.0 | 1.6 | 0.00 | 0.00 | 0.00 | 90 | 1020.6 | |
| 20260507083016 | 11 | 0.0 | 3.2 | 0.00 | 0.00 | 0.00 | 91 | 1020.5 | |
| 20260507082016 | 11 | 0.0 | 4.8 | 0.00 | 0.00 | 0.00 | 91 | 1020.4 | |
| 20260507081016 | 11 | 0.0 | 1.6 | 0.00 | 0.00 | 0.00 | 91 | 1020.3 | |
| 20260507080016 | 11 | 225 | 1.6 | 3.2 | 0.00 | 0.00 | 0.00 | 91 | 1020.2 |
| 20260507075016 | 11 | 0.0 | 4.8 | 0.00 | 0.00 | 0.00 | 91 | 1020.4 | |
| 20260507074016 | 11 | 0.0 | 1.6 | 0.00 | 0.00 | 0.00 | 91 | 1020.4 | |
| 20260507073016 | 11 | 225 | 1.6 | 4.8 | 0.00 | 0.00 | 0.00 | 91 | 1020.2 |
| 20260507072056 | 11 | 0.0 | 3.2 | 0.00 | 0.00 | 0.00 | 91 | 1020.2 | |
| 20260507071016 | 11 | 225 | 1.6 | 4.8 | 0.00 | 0.00 | 0.00 | 91 | 1020.0 |
| 20260507070016 | 11 | 0.0 | 6.4 | 0.00 | 0.00 | 0.00 | 91 | 1020.1 | |
| 20260507065035 | 11 | 0.0 | 3.2 | 0.00 | 0.00 | 0.00 | 91 | 1020.1 | |
| 20260507064017 | 11 | 0.0 | 1.6 | 0.00 | 0.00 | 0.00 | 91 | 1020.2 | |
| 20260507063017 | 11 | 0.0 | 1.6 | 0.00 | 0.00 | 0.00 | 91 | 1020.1 | |
| 20260507062016 | 11 | 0.0 | 1.6 | 0.00 | 0.00 | 0.00 | 91 | 1020.2 | |
| 20260507061017 | 11 | 0.0 | 0.0 | 0.00 | 0.00 | 0.00 | 90 | 1020.2 | |
| 20260507060037 | 11 | 0.0 | 1.6 | 0.00 | 0.00 | 0.00 | 90 | 1020.2 | |
| 20260507055017 | 11 | 0.0 | 3.2 | 0.00 | 0.00 | 0.00 | 89 | 1020.3 | |
| 20260507054017 | 12 | 0.0 | 1.6 | 0.00 | 0.00 | 0.00 | 89 | 1020.2 | |
| 20260507053016 | 12 | 0.0 | 1.6 | 0.00 | 0.00 | 0.00 | 88 | 1020.3 | |
| 20260507052036 | 12 | 0.0 | 3.2 | 0.00 | 0.00 | 0.00 | 88 | 1020.3 | |
| 20260507051017 | 12 | 0.0 | 1.6 | 0.00 | 0.00 | 0.00 | 88 | 1020.3 | |
| 20260507050017 | 12 | 0.0 | 4.8 | 0.00 | 0.00 | 0.00 | 87 | 1020.1 | |
| 20260507045016 | 12 | 248 | 1.6 | 8.0 | 0.00 | 0.00 | 0.00 | 86 | 1020.0 |
| 20260507044036 | 12 | 0.0 | 1.6 | 0.00 | 0.00 | 0.00 | 86 | 1020.2 | |
| 20260507043017 | 12 | 0.0 | 3.2 | 0.00 | 0.00 | 0.00 | 86 | 1020.3 | |
| 20260507042016 | 12 | 0.0 | 1.6 | 0.00 | 0.00 | 0.00 | 85 | 1020.2 | |
| 20260507041016 | 12 | 0.0 | 1.6 | 0.00 | 0.00 | 0.00 | 85 | 1020.1 | |
| 20260507040017 | 12 | 0.0 | 8.0 | 0.00 | 0.00 | 0.00 | 84 | 1020.1 | |
| 20260507035016 | 13 | 0.0 | 3.2 | 0.00 | 0.00 | 0.00 | 84 | 1020.1 | |
| 20260507034016 | 13 | 0.0 | 1.6 | 0.00 | 0.00 | 0.00 | 83 | 1019.9 | |
| 20260507033016 | 13 | 0.0 | 1.6 | 0.00 | 0.00 | 0.00 | 83 | 1020.0 | |
| 20260507032017 | 13 | 0.0 | 0.0 | 0.00 | 0.00 | 0.00 | 83 | 1020.0 | |
| 20260507031016 | 13 | 0.0 | 3.2 | 0.00 | 0.00 | 0.00 | 83 | 1019.9 | |
| 20260507030017 | 13 | 0.0 | 4.8 | 0.00 | 0.00 | 0.00 | 83 | 1019.8 | |
| 20260507025016 | 13 | 0.0 | 0.0 | 0.00 | 0.00 | 0.00 | 83 | 1019.8 | |
| 20260507024016 | 13 | 0.0 | 1.6 | 0.00 | 0.00 | 0.00 | 83 | 1019.7 | |
| 20260507023016 | 13 | 0.0 | 1.6 | 0.00 | 0.00 | 0.00 | 82 | 1019.6 | |
| 20260507022016 | 13 | 0.0 | 3.2 | 0.00 | 0.00 | 0.00 | 82 | 1019.7 | |
| 20260507021016 | 13 | 0.0 | 3.2 | 0.00 | 0.00 | 0.00 | 82 | 1019.6 | |
| 20260507020036 | 13 | 0.0 | 4.8 | 0.00 | 0.00 | 0.00 | 82 | 1019.6 | |
| 20260507015016 | 13 | 0.0 | 3.2 | 0.00 | 0.00 | 0.00 | 82 | 1019.5 | |
| 20260507014036 | 13 | 0.0 | 1.6 | 0.00 | 0.00 | 0.00 | 82 | 1019.5 | |
| 20260507013017 | 13 | 0.0 | 3.2 | 0.00 | 0.00 | 0.00 | 82 | 1019.6 | |
| 20260507012016 | 13 | 0.0 | 4.8 | 0.00 | 0.00 | 0.00 | 82 | 1019.7 | |
| 20260507011016 | 13 | 248 | 1.6 | 4.8 | 0.00 | 0.00 | 0.00 | 82 | 1019.6 |
| 20260507010016 | 13 | 0.0 | 1.6 | 0.00 | 0.00 | 0.00 | 82 | 1019.8 | |
| 20260507005016 | 13 | 180 | 1.6 | 4.8 | 0.00 | 0.00 | 0.00 | 82 | 1019.9 |
| 20260507004016 | 13 | 0.0 | 1.6 | 0.00 | 0.00 | 0.00 | 82 | 1019.8 | |
| 20260507003016 | 13 | 135 | 1.6 | 8.0 | 0.00 | 0.00 | 0.00 | 81 | 1019.8 |
| 20260507002036 | 13 | 158 | 1.6 | 4.8 | 0.00 | 0.00 | 0.00 | 81 | 1019.8 |
| 20260507001036 | 13 | 0.0 | 3.2 | 0.00 | 0.00 | 0.00 | 80 | 1019.8 | |
| 20260507000036 | 13 | 225 | 1.6 | 6.4 | 0.00 | 0.00 | 0.00 | 81 | 1019.7 |
| 20260506235016 | 13 | 203 | 1.6 | 8.0 | 0.00 | 0.00 | 0.00 | 80 | 1019.8 |
| 20260506234016 | 13 | 203 | 1.6 | 6.4 | 0.00 | 0.00 | 0.00 | 80 | 1019.8 |
| 20260506233036 | 13 | 225 | 3.2 | 8.0 | 0.00 | 0.00 | 0.00 | 80 | 1019.8 |
| 20260506232016 | 13 | 248 | 1.6 | 4.8 | 0.00 | 0.00 | 0.00 | 80 | 1019.9 |
| 20260506231016 | 14 | 113 | 1.6 | 6.4 | 0.00 | 0.00 | 0.00 | 79 | 1019.8 |
| 20260506230016 | 14 | 270 | 1.6 | 9.7 | 0.00 | 0.00 | 0.00 | 78 | 1019.9 |
| 20260506225036 | 14 | 225 | 1.6 | 4.8 | 0.00 | 0.00 | 0.00 | 77 | 1019.9 |
| 20260506224016 | 14 | 225 | 1.6 | 6.4 | 0.00 | 0.00 | 0.00 | 77 | 1019.9 |
| 20260506223036 | 14 | 113 | 1.6 | 6.4 | 0.00 | 0.00 | 0.00 | 76 | 1019.8 |
| 20260506222016 | 14 | 225 | 1.6 | 9.7 | 0.00 | 0.00 | 0.00 | 76 | 1019.9 |
| 20260506221015 | 14 | 225 | 1.6 | 8.0 | 0.00 | 0.00 | 0.00 | 76 | 1020.0 |
| 20260506220016 | 15 | 135 | 1.6 | 9.7 | 0.00 | 0.00 | 0.00 | 75 | 1020.1 |
| 20260506215015 | 14 | 203 | 1.6 | 4.8 | 0.00 | 0.00 | 0.00 | 76 | 1020.1 |
| 20260506214016 | 14 | 225 | 1.6 | 9.7 | 0.00 | 0.00 | 0.00 | 76 | 1020.1 |
| 20260506213015 | 14 | 248 | 1.6 | 8.0 | 0.00 | 0.00 | 0.00 | 76 | 1019.9 |
| 20260506212015 | 14 | 225 | 1.6 | 9.7 | 0.00 | 0.00 | 0.00 | 76 | 1020.1 |
| 20260506211015 | 14 | 135 | 1.6 | 12.9 | 0.00 | 0.00 | 0.00 | 75 | 1020.0 |
| 20260506210015 | 15 | 0.0 | 6.4 | 0.00 | 0.00 | 0.00 | 75 | 1020.1 | |
| 20260506205036 | 14 | 248 | 1.6 | 9.7 | 0.00 | 0.00 | 0.00 | 75 | 1020.0 |
| 20260506204016 | 14 | 225 | 1.6 | 9.7 | 0.00 | 0.00 | 0.00 | 76 | 1019.9 |
| 20260506203016 | 14 | 0.0 | 4.8 | 0.00 | 0.00 | 0.00 | 77 | 1019.9 | |
| 20260506202016 | 14 | 135 | 1.6 | 9.7 | 0.00 | 0.00 | 0.00 | 78 | 1019.9 |
| 20260506201036 | 13 | 225 | 1.6 | 9.7 | 0.00 | 0.00 | 0.00 | 79 | 1019.9 |
| 20260506200015 | 13 | 180 | 3.2 | 11.3 | 0.00 | 0.00 | 0.00 | 78 | 1019.9 |
| 20260506195015 | 13 | 180 | 3.2 | 6.4 | 0.00 | 0.00 | 0.00 | 80 | 1019.7 |
| 20260506194016 | 13 | 225 | 1.6 | 6.4 | 0.00 | 0.00 | 0.00 | 80 | 1019.8 |
| 20260506193015 | 13 | 225 | 1.6 | 11.3 | 0.00 | 0.00 | 0.00 | 81 | 1019.8 |
| 20260506192016 | 13 | 248 | 1.6 | 8.0 | 0.00 | 0.00 | 0.00 | 82 | 1019.8 |
| 20260506191016 | 13 | 0.0 | 3.2 | 0.00 | 0.00 | 0.00 | 82 | 1019.8 | |
| 20260506190015 | 13 | 0.0 | 6.4 | 0.00 | 0.00 | 0.00 | 83 | 1019.6 | |
| 20260506185035 | 12 | 203 | 1.6 | 4.8 | 0.00 | 0.00 | 0.00 | 85 | 1019.6 |
| 20260506184015 | 12 | 135 | 1.6 | 8.0 | 0.00 | 0.00 | 0.00 | 86 | 1019.7 |
| 20260506183015 | 12 | 203 | 1.6 | 8.0 | 0.00 | 0.00 | 0.00 | 86 | 1019.6 |
| 20260506182015 | 12 | 225 | 1.6 | 6.4 | 0.00 | 0.00 | 0.00 | 89 | 1019.7 |
| 20260506181015 | 12 | 203 | 1.6 | 6.4 | 0.00 | 0.00 | 0.00 | 88 | 1019.7 |
| 20260506180015 | 12 | 0.0 | 6.4 | 0.00 | 0.00 | 0.00 | 89 | 1019.5 | |
| 20260506175015 | 12 | 248 | 1.6 | 6.4 | 0.00 | 0.00 | 0.00 | 90 | 1019.3 |
| 20260506174035 | 12 | 0.0 | 4.8 | 0.00 | 0.00 | 0.00 | 93 | 1019.3 | |
| 20260506173136 | 11 | 225 | 1.6 | 6.4 | 0.00 | 0.00 | 0.00 | 93 | 1019.4 |
| 20260506172015 | 11 | 225 | 1.6 | 8.0 | 0.00 | 0.00 | 0.00 | 93 | 1019.6 |
| 20260506171035 | 11 | 0.0 | 3.2 | 0.00 | 0.00 | 0.00 | 93 | 1019.4 | |
| 20260506170015 | 12 | 0.0 | 4.8 | 0.00 | 0.00 | 0.00 | 91 | 1019.5 | |
| 20260506165015 | 11 | 0.0 | 3.2 | 0.00 | 0.00 | 0.00 | 91 | 1019.4 | |
| 20260506164015 | 11 | 225 | 1.6 | 4.8 | 0.00 | 0.00 | 0.00 | 91 | 1019.2 |
| 20260506163015 | 11 | 135 | 1.6 | 4.8 | 0.00 | 0.00 | 0.00 | 91 | 1019.3 |
| 20260506162015 | 11 | 0.0 | 4.8 | 0.00 | 0.00 | 0.00 | 92 | 1019.0 | |
| 20260506161015 | 11 | 203 | 1.6 | 4.8 | 0.00 | 0.00 | 0.00 | 93 | 1018.9 |
| 20260506160035 | 11 | 225 | 1.6 | 8.0 | 0.00 | 0.00 | 0.00 | 94 | 1018.7 |
| 20260506155015 | 11 | 0.0 | 9.7 | 0.00 | 0.00 | 0.00 | 94 | 1018.6 | |
| 20260506154035 | 11 | 248 | 1.6 | 4.8 | 0.00 | 0.00 | 0.00 | 94 | 1018.8 |
| 20260506153035 | 11 | 0.0 | 3.2 | 0.00 | 0.00 | 0.00 | 94 | 1019.0 | |
| 20260506152015 | 11 | 0.0 | 3.2 | 0.00 | 0.00 | 0.00 | 95 | 1019.2 | |
| 20260506151015 | 11 | 0.0 | 3.2 | 0.00 | 0.00 | 0.00 | 95 | 1019.0 | |
| 20260506150035 | 11 | 0.0 | 4.8 | 0.00 | 0.00 | 0.00 | 95 | 1018.8 | |
| 20260506145015 | 11 | 0.0 | 4.8 | 0.00 | 0.00 | 0.00 | 95 | 1018.6 | |
| 20260506144055 | 11 | 0.0 | 4.8 | 0.00 | 0.00 | 0.00 | 95 | 1018.8 | |
| 20260506143017 | 11 | 0.0 | 1.6 | 0.00 | 0.00 | 0.00 | 94 | 1019.0 | |
| 20260506142017 | 11 | 0.0 | 1.6 | 0.00 | 0.00 | 0.00 | 94 | 1018.8 | |
| 20260506141017 | 11 | 0.0 | 1.6 | 0.00 | 0.00 | 0.00 | 94 | 1018.7 | |
| 20260506140037 | 11 | 270 | 1.6 | 4.8 | 0.00 | 0.00 | 0.00 | 93 | 1018.4 |
| 20260506135017 | 11 | 0.0 | 4.8 | 0.00 | 0.00 | 0.00 | 93 | 1018.3 | |
| 20260506134017 | 11 | 0.0 | 1.6 | 0.00 | 0.00 | 0.00 | 93 | 1018.5 | |
| 20260506133017 | 11 | 225 | 1.6 | 4.8 | 0.00 | 0.00 | 0.00 | 93 | 1018.2 |
| 20260506132017 | 11 | 0.0 | 3.2 | 0.00 | 0.00 | 0.00 | 92 | 1018.3 | |
| 20260506131017 | 11 | 0.0 | 3.2 | 0.00 | 0.00 | 0.00 | 92 | 1018.2 | |
| 20260506130017 | 11 | 0.0 | 0.0 | 0.00 | 0.00 | 0.00 | 92 | 1018.2 | |
| 20260506125017 | 11 | 0.0 | 0.0 | 0.00 | 0.00 | 0.00 | 91 | 1017.9 | |
| 20260506124037 | 11 | 0.0 | 1.6 | 0.00 | 0.00 | 0.00 | 91 | 1018.0 | |
| 20260506123017 | 11 | 0.0 | 3.2 | 0.00 | 0.00 | 0.00 | 91 | 1018.0 | |
| 20260506122016 | 11 | 0.0 | 4.8 | 0.00 | 0.00 | 0.00 | 91 | 1017.8 | |
| 20260506121016 | 11 | 0.0 | 1.6 | 0.00 | 0.00 | 0.00 | 92 | 1017.8 | |
| 20260506120017 | 11 | 0.0 | 1.6 | 0.00 | 0.00 | 0.00 | 91 | 1017.7 | |
| 20260506115017 | 11 | 0.0 | 3.2 | 0.00 | 0.00 | 0.00 | 91 | 1017.8 | |
| 20260506114017 | 11 | 0.0 | 0.0 | 0.00 | 0.00 | 0.00 | 91 | 1017.7 | |
| 20260506113016 | 11 | 0.0 | 4.8 | 0.00 | 0.00 | 0.00 | 91 | 1017.6 | |
| 20260506112016 | 11 | 0.0 | 3.2 | 0.00 | 0.00 | 0.00 | 92 | 1017.5 | |
| 20260506111017 | 11 | 0.0 | 3.2 | 0.00 | 0.00 | 0.00 | 92 | 1017.5 | |
| 20260506110016 | 11 | 0.0 | 1.6 | 0.00 | 0.00 | 0.00 | 92 | 1017.4 | |
| 20260506105017 | 11 | 0.0 | 3.2 | 0.00 | 0.00 | 0.00 | 92 | 1017.3 | |
| 20260506104036 | 11 | 203 | 1.6 | 8.0 | 0.00 | 0.00 | 0.00 | 92 | 1017.3 |
| 20260506103016 | 11 | 0.0 | 6.4 | 0.00 | 0.00 | 0.00 | 92 | 1017.2 | |
| 20260506102016 | 11 | 0.0 | 6.4 | 0.00 | 0.00 | 0.00 | 91 | 1017.2 | |
| 20260506101016 | 11 | 225 | 1.6 | 8.0 | 0.00 | 0.00 | 0.00 | 91 | 1017.2 |
| 20260506100016 | 11 | 248 | 1.6 | 4.8 | 0.00 | 0.00 | 0.00 | 92 | 1017.2 |
| 20260506095016 | 11 | 0.0 | 3.2 | 0.00 | 0.00 | 0.00 | 92 | 1017.0 |